History for Miami, FL

Wednesday, January 23, 2013 — View Current Conditions

Jump to Data:

Date:
Airport Code:
Recently Viewed Airport Codes: KMIA
Daily Summary
  Actual Average Record
Temperature
Mean Temperature 70°F 68°F  
Max Temperature 76°F 77°F 85°F (2007)
Min Temperature 63°F 60°F 36°F (1985)
Degree Days
Heating Degree Days 0 2  
Month to date heating degree days 4 46  
Since 1 July heating degree days 20 83  
Cooling Degree Days 5 5  
Month to date cooling degree days 211 115  
Year to date cooling degree days 211 115  
Growing Degree Days 20 (Base 50)    
Moisture
Dew Point 52°F    
Average Humidity 60    
Maximum Humidity 73    
Minimum Humidity 46    
Precipitation
Precipitation 0.00 in 0.06 in 1.79 in (1983)
Month to date precipitation 0.54 1.18  
Year to date precipitation 0.54 1.18  
Snow
Snow 0.00 in in in ()
Month to date snowfall 0.0  
Since 1 July snowfall 0.0  
Snow Depth 0.00 in    
Sea Level Pressure
Sea Level Pressure 30.25 in    
Wind
Wind Speed 7 mph (NE)    
Max Wind Speed 16 mph    
Max Gust Speed 22 mph    
Visibility 10 miles    
Events      
T = Trace of Precipitation, MM = Missing Value Source: NWS Daily Summary

Show full METARS

(help) - Comma Delimited File

Hourly Observations

Time(EST) Temperature Dew Point Humidity Sea Level Pressure Visibility Wind Direction Wind Speed Gust Speed Precipitation Events Conditions
12:53 AM 64.0°F 55.0°F 73% 30.21 in 10.0 miles North 5.8 mph - N/A   Mostly Cloudy
1:53 AM 64.9°F 55.0°F 70% 30.20 in 10.0 miles NNW 3.5 mph - N/A   Mostly Cloudy
2:53 AM 66.0°F 55.0°F 68% 30.20 in 10.0 miles North 4.6 mph - N/A   Partly Cloudy
3:53 AM 68.0°F 52.0°F 56% 30.20 in 10.0 miles NE 6.9 mph - N/A   Clear
4:53 AM 68.0°F 50.0°F 52% 30.20 in 10.0 miles NE 8.1 mph - N/A   Partly Cloudy
5:53 AM 68.0°F 51.1°F 55% 30.22 in 10.0 miles NE 4.6 mph - N/A   Mostly Cloudy
6:53 AM 68.0°F 52.0°F 56% 30.23 in 10.0 miles NE 6.9 mph - N/A   Mostly Cloudy
7:53 AM 69.1°F 51.1°F 53% 30.26 in 10.0 miles NNE 4.6 mph - N/A   Overcast
8:53 AM 66.9°F 55.0°F 66% 30.28 in 10.0 miles Variable 5.8 mph - N/A   Mostly Cloudy
9:53 AM 70.0°F 54.0°F 57% 30.29 in 10.0 miles NNE 4.6 mph - N/A   Overcast
10:53 AM 73.0°F 51.1°F 46% 30.30 in 10.0 miles NNE 6.9 mph - N/A   Overcast
11:53 AM 72.0°F 50.0°F 46% 30.28 in 10.0 miles ENE 11.5 mph 20.7 mph N/A   Mostly Cloudy
12:53 PM 73.0°F 51.1°F 46% 30.26 in 10.0 miles ENE 11.5 mph 20.7 mph N/A   Mostly Cloudy
1:53 PM 73.0°F 51.1°F 46% 30.24 in 10.0 miles ENE 11.5 mph 17.3 mph N/A   Mostly Cloudy
2:53 PM 72.0°F 50.0°F 46% 30.24 in 10.0 miles ENE 11.5 mph 18.4 mph N/A   Mostly Cloudy
3:53 PM 73.9°F 51.1°F 45% 30.24 in 10.0 miles East 16.1 mph - N/A   Scattered Clouds
4:53 PM 72.0°F 51.1°F 48% 30.24 in 10.0 miles NE 10.4 mph - N/A   Scattered Clouds
5:53 PM 70.0°F 52.0°F 53% 30.25 in 10.0 miles NE 10.4 mph - N/A   Scattered Clouds
6:53 PM 69.1°F 51.1°F 53% 30.26 in 10.0 miles NE 4.6 mph - N/A   Scattered Clouds
7:53 PM 68.0°F 52.0°F 56% 30.27 in 10.0 miles NE 5.8 mph - N/A   Partly Cloudy
8:53 PM 66.9°F 52.0°F 59% 30.28 in 10.0 miles NNE 4.6 mph - N/A   Partly Cloudy
9:53 PM 66.9°F 51.1°F 57% 30.28 in 10.0 miles North 3.5 mph - N/A   Partly Cloudy
10:53 PM 64.9°F 53.1°F 65% 30.29 in 10.0 miles Variable 4.6 mph - N/A   Partly Cloudy
11:53 PM 62.6°F 55.4°F 77% 30.28 in 10.0 miles NNW 5.8 mph - N/A   Scattered Clouds